Regional Weather Roundup
Issued by NWS Jackson, KY

Home | Current Version | Previous Version | Graphics & Text | Print | Product List | Glossary On
Versions: 1 2 3 4 5 6 7 8 9 10 11 12 13 14 15 16 17 18 19 20 21 22 23 24 25 26 27
000
ASUS43 KJKL 050010
RWRJKL

EAST KENTUCKY HOURLY WEATHER ROUNDUP
NATIONAL WEATHER SERVICE JACKSON KY
800 PM EDT WED MAY 04 2016

NOTE: "FAIR" INDICATES FEW OR NO CLOUDS BELOW 12,000 FEET WITH
NO SIGNIFICANT WEATHER AND/OR OBSTRUCTIONS TO VISIBILITY.

* THESE REPORTS ARE NOT UNDER NWS QUALITY CONTROL AND MAY NOT
  REPORT WEATHER SUCH AS PRECIPITATION AND FOG.

KYZ079-080-083-085-087-088-110-112-115-119-120-050100
...EASTERN KENTUCKY...

CITY           SKY/WX    TMP DP  RH WIND       PRES   REMARKS
JACKSON        LGT RAIN  48  46  93 CALM      29.70R FOG
6HR MIN TEMP:  48; 6HR MAX TEMP:  65; 6HR PCP:  0.23;

LONDON         MOCLDY    48  46  93 S3        29.72R
6HR MIN TEMP:  46; 6HR MAX TEMP:  65; 6HR PCP:  0.40;

SOMERSET*      CLOUDY    52  46  82 NW3       29.74R
MONTICELLO*    MOCLDY    54  48  80 N16       29.75R
6HR MIN TEMP:  54; 6HR MAX TEMP:  63; 6HR PCP:  0.23;

WILLIAMSBURG*  MOCLDY    48  48 100 CALM      29.74R
MIDDLESBORO*   TSTM      48  44  87 W3G21     29.76R
6HR MIN TEMP:  48; 6HR MAX TEMP:  66; 6HR PCP:  0.08;

HARLAN APT*    CLOUDY    52  46  82 W16G24    29.72R
HAZARD APT*    MOCLDY    54  52  94 SW3       29.70R
BLACK MTN*       N/A     43  41  93 SW3         N/A
PIKE CO APT*   CLOUDY    50  48  93 CALM      29.69S
BIG SANDY APT* CLOUDY    52  49  90 CALM      29.69S
6HR MIN TEMP:  51; 6HR MAX TEMP:  63;

MOREHEAD APT*  CLOUDY    52  48  87 CALM      29.72R
$$

KYZ035-036-041-042-044-050-067-078-099-050100
...CENTRAL KENTUCKY...

CITY           SKY/WX    TMP DP  RH WIND       PRES   REMARKS
MT STERLING*   PTCLDY    52  46  82 N5        29.72R
FLEMING/MASON* LGT RAIN  51  45  80 NW7       29.71R
DANVILLE*      CLEAR     54  45  71 NW6       29.73R
RICHMOND*      MOCLDY    55  43  62 NW7       29.70R
LEXINGTON      MOCLDY    55  43  63 NW14      29.72R
6HR MIN TEMP:  52; 6HR MAX TEMP:  58; 6HR PCP:  0.06;

FRANKFORT      CLEAR     56  38  50 NW12      29.71R
6HR MIN TEMP:  53; 6HR MAX TEMP:  59; 6HR PCP:  0.08;

LOUISVILLE     LGT RAIN  56  42  59 NW17G26   29.74R
6HR MIN TEMP:  54; 6HR MAX TEMP:  62; 6HR PCP: TRACE;

LEBANON*         N/A     54  45  71 NW7       29.73S
BOWLING GREEN  CLOUDY    62  40  44 NW12G21   29.75R
6HR MIN TEMP:  59; 6HR MAX TEMP:  66; 6HR PCP:  0.02;

$$

KYZ091>093-OHZ055-061-077-WVZ005-015-034-035-042-050100
...SOUTHERN OHIO/WEST VIRGINIA...

CITY           SKY/WX    TMP DP  RH WIND       PRES   REMARKS
COVINGTON      PTCLDY    52  35  52 NW17G28   29.72R
COLUMBUS       MOCLDY    51  41  68 W16       29.67R
DAYTON         CLOUDY    48  38  68 NW15      29.73R
WILMINGTON     PTCLDY    50  39  66 NW10G21   29.70R
HUNTINGTON     CLOUDY    53  48  83 SW5       29.68S
CHARLESTON     LGT RAIN  52  48  86 SW3       29.69S
PINEVILLE*     CLOUDY    54  40  60 MISG      29.74R
BECKLEY        MOCLDY    52  44  74 NE7       29.67R
$$

VAZ002-007-008-TNZ017-027-036-066-071-050100
...SOUTHWEST VIRGINIA/EAST TENNESSEE...

CITY           SKY/WX    TMP DP  RH WIND       PRES   REMARKS
WISE*          LGT RAIN  48  43  81 W3        29.70F
BRISTOL        CLOUDY    55  44  66 W8        29.69R
MORRISTOWN*    CLOUDY    55  48  76 SW8       29.70R
SEVIERVILLE*   MOCLDY    54  48  82 S3        29.72R
KNOXVILLE      CLOUDY    54  50  86 S7        29.72S
OAK RIDGE      HVY RAIN  54  49  83 NW9       29.77R
CROSSVILLE     LGT RAIN  50  45  83 W3        29.76R
NASHVILLE      PTCLDY    61  49  64 N7        29.76R
$$

...KEY TO REMARKS...
VSB - VISIBILITY IN MILES
WCI - WIND CHILL INDEX
HX  - HEAT INDEX

$$




USA.gov is the U.S. government's official web portal to all federal, state and local government web resources and services.